Regional Weather Roundup
Issued by NWS

Home | Current Version | Previous Version | Text Only | Print | Product List | Glossary On
Versions: 1 2 3 4 5 6 7 8 9 10 11 12 13 14 15 16 17 18 19 20 21 22 23 24 25 26 27 28 29 30 31 32 33 34 35 36 37 38 39
004
ASUS44 KLIX 020501
RWRLA
LOUISIANA WEATHER ROUNDUP
NATIONAL WEATHER SERVICE NEW ORLEANS LA
1200 AM CDT TUE SEP 02 2014

NOTE: "FAIR" INDICATES FEW OR NO CLOUDS BELOW 12,000 FEET WITH NO
      SIGNIFICANT WEATHER AND/OR OBSTRUCTIONS TO VISIBILITY.
      SKY/WX - SKY CONDITION AND SIGNIFICANT WEATHER.
      TMP - AIR TEMPERATURE.    DP   - DEWPOINT TEMPERATURE.
      RH  - RELATIVE HUMIDITY.  PRES - PRESSURE.
      HX  - HEAT INDEX.         WCI  - WIND CHILL INDEX.

*  THESE STATIONS ARE NOT NWS OR FAA STATIONS AND ARE NOT UNDER
   NWS QUALITY CONTROL.

LAZ040-048-061>063-065-066-069-020600-
SOUTHEAST LOUISIANA

CITY           SKY/WX    TMP DP  RH WIND       PRES   REMARKS
N.O. AUDUBON     N/A     82  79  91 MISG        N/A
N.O. INTL ARPT MOCLDY    81  75  82 S9        30.02F
N.O. LAKEFRONT MOCLDY    79  75  87 SE7       30.03F
N.O. DOWNTOWN* FAIR      81  73  78 CALM      30.03F
SLIDELL        CLOUDY    77  74  90 CALM      30.01F
BATON ROUGE    CLOUDY    79  75  87 SE5       30.00F
BOOTHVILLE     MOCLDY    82  78  88 SE5       30.05S
BELLE CHASSE   MOCLDY    81  74  79 S5        30.02F
BOGALUSA*      FAIR      79  74  84 CALM      30.03F
GALLIANO*      NOT AVBL
NEW ROADS*     FAIR      76  76  97 CALM      30.01S
GONZALES*        N/A     79  79 100 SE3       30.00F
HAMMOND*       NOT AVBL
HOUMA*         PTCLDY    78  74  87 CALM      30.02F
PORT FOURCHON* CLEAR     84  75  74 S8        30.04F

$$

LAZ041-044-053-054-020600-
SOUTHWEST LOUISIANA

CITY           SKY/WX    TMP DP  RH WIND       PRES   REMARKS
LAKE CHARLES   PTCLDY    80  77  90 S7        29.96F
LAFAYETTE      CLEAR     78  76  93 SE3       29.99F
PATTERSON        N/A     77  75  94 CALM      30.03F
SALT POINT       N/A     86  78  77 VRB3      30.00F HX  98
NEW IBERIA     PTCLDY    79  77  94 SE7       30.00F
CHENAULT AIRPK PTCLDY    79  75  90 SE7       29.98F

$$

LAZ027-028-020600-
CENTRAL LOUISIANA

CITY           SKY/WX    TMP DP  RH WIND       PRES   REMARKS
FORT POLK      PTCLDY    77  76  96 SE6       29.98S
ALEXANDRIA INT CLEAR     76  75  97 SE7       29.97F
ALEXANDRIA     CLEAR     78  74  87 S3        29.98F

$$

LAZ001-002-020600-
NORTHWEST LOUISIANA

CITY           SKY/WX    TMP DP  RH WIND       PRES   REMARKS
SHREVEPORT     CLEAR     80  75  84 S7        29.95R
BARKSDALE AFB  CLEAR     80  76  87 S12       29.95R
DTN SHREVEPORT CLEAR     81  75  82 S10       29.95R

$$

LAZ014-016-020600-
NORTHEAST LOUISIANA

CITY           SKY/WX    TMP DP  RH WIND       PRES   REMARKS
MONROE         CLEAR     77  74  90 S7        29.98S
TALLULAH       PTCLDY    77  74  90 SE7       29.99F

$$




USA.gov is the U.S. government's official web portal to all federal, state and local government web resources and services.